Wind_Speed
4 4 3 3 3 3 3 3 2 3 3 2 2 2 2 2 2 2 2 1 1 1 3 3 3 2 2 2 1 1 0 1 2 2 2 2 2 3 4 5 5 5 5 6 6 7 7 7 8
5 4 4 4 4 4 3 3 3 3 3 2 2 2 2 2 2 2 2 1 1 1 2 2 2 2 1 1 1 1 1 2 2 2 3 3 3 4 5 5 6 7 7 7 7 8 8 8 8
5 5 5 5 5 6 5 4 4 3 3 3 2 2 3 3 2 2 2 1 2 2 2 2 1 1 1 2 2 2 2 2 3 3 3 4 4 5 6 6 7 8 8 8 8 9 9 9 9
6 6 6 6 6 7 6 5 5 5 4 4 4 4 4 4 3 3 2 2 2 2 2 2 2 2 2 3 3 3 3 3 4 4 4 5 6 6 7 7 8 8 8 9 9 9 9 9 9
7 7 7 7 7 7 7 7 7 6 5 5 5 5 5 4 5 5 4 4 4 3 3 3 3 3 4 4 4 4 4 5 5 5 5 6 7 6 6 7 7 7 8 7 8 9 9 9 10
7 7 8 7 7 7 7 7 7 7 6 6 6 6 6 6 6 6 6 6 6 5 5 5 5 5 5 5 5 5 5 5 5 5 6 6 7 6 5 5 5 5 6 7 8 8 9 10 10
7 8 8 8 8 8 7 7 7 7 7 6 7 7 7 7 7 6 7 7 7 7 6 7 7 7 6 6 5 6 6 6 6 6 6 7 7 7 6 5 5 5 6 8 8 9 10 10 10
8 9 9 8 9 8 8 8 7 7 7 7 7 7 8 8 8 7 7 7 7 6 6 6 6 6 7 7 7 7 7 7 7 7 7 7 8 8 7 6 6 6 7 8 9 10 10 11 11
8 9 9 9 9 9 9 9 8 9 8 8 7 7 8 8 8 7 7 7 7 7 7 7 7 8 8 9 9 9 9 9 9 8 8 8 8 8 8 8 8 8 9 9 10 11 11 11 11
7 8 9 10 10 10 10 9 9 8 8 7 7 7 7 8 8 8 8 8 8 8 8 9 9 9 10 10 10 10 10 10 10 9 9 9 10 9 9 9 10 10 10 11 11 12 12 12 12
7 7 8 9 9 9 9 9 9 9 8 8 8 8 8 9 9 9 10 10 10 10 10 10 11 11 11 11 11 11 11 11 11 11 10 10 11 11 10 10 10 11 11 11 11 12 13 13 13
8 8 8 8 9 9 9 9 9 9 9 9 9 9 10 10 10 10 11 11 12 12 12 11 12 12 12 11 11 12 12 12 12 11 11 11 12 11 11 11 12 12 12 12 12 13 13 12 12
9 8 9 9 9 10 10 9 10 10 10 10 11 10 10 10 11 12 11 12 12 12 12 12 12 12 12 13 13 13 13 13 12 12 12 12 12 12 12 12 13 13 13 13 13 13 13 13 13
9 9 9 9 9 10 11 11 11 10 11 11 11 11 11 11 11 12 12 12 12 12 12 13 13 13 14 14 13 13 13 13 12 12 13 12 12 12 12 12 13 13 13 13 13 13 13 13 13
10 9 9 9 9 10 11 11 11 11 12 12 12 12 12 11 11 12 13 13 13 14 13 13 14 14 15 15 14 14 14 13 13 12 12 12 12 12 12 12 13 13 13 14 14 13 13 14 13
9 9 9 10 10 10 11 10 11 12 12 13 13 13 13 12 12 13 13 14 14 15 15 15 15 15 15 16 15 15 14 14 13 13 13 13 13 13 13 13 13 14 14 14 13 13 13 14 14
9 10 10 11 11 12 12 11 12 13 13 14 14 14 14 14 14 14 15 15 15 16 16 16 16 16 16 16 16 16 15 15 14 14 14 14 14 14 14 14 14 14 14 14 14 14 14 13 13
11 12 12 13 13 13 13 13 13 14 14 14 14 14 14 15 15 16 16 16 16 16 16 17 17 17 17 17 17 16 16 16 16 16 15 15 15 15 15 15 15 14 14 14 14 14 14 13 13
14 14 14 14 15 15 15 15 14 15 15 15 15 15 15 16 16 16 17 17 17 16 17 17 17 17 17 18 17 17 17 17 17 17 17 16 16 16 16 16 16 15 15 15 14 14 14 14 14
15 15 15 16 16 16 16 16 15 15 16 16 16 16 16 16 17 17 17 18 17 17 17 18 18 18 18 18 18 18 18 18 18 18 18 17 17 17 17 17 16 16 16 15 15 15 15 15 15
16 16 16 16 17 17 17 17 17 16 17 17 17 17 17 17 18 18 18 18 18 18 18 18 19 19 19 19 19 19 19 19 19 19 19 18 18 18 18 17 17 17 16 16 16 16 17 16 16
15 16 16 17 17 18 18 18 17 17 18 18 18 18 18 18 18 19 19 19 19 19 19 19 19 20 20 20 20 20 20 20 20 20 20 20 20 19 19 18 18 18 17 17 17 17 17 17 17
15 15 16 16 18 19 18 20 19 18 19 19 20 20 19 19 19 20 20 20 20 20 20 21 20 20 20 21 21 21 21 20 20 20 20 20 20 20 19 19 19 19 18 18 18 18 18 18 18
16 16 17 17 18 19 19 20 19 18 19 20 20 21 21 21 20 20 21 21 21 22 22 22 21 21 21 21 22 22 22 21 21 21 21 21 20 20 20 20 20 20 20 20 19 19 19 19 19
15 16 16 17 18 20 19 20 20 19 19 20 20 20 21 21 21 21 21 22 23 23 23 23 23 22 22 22 22 22 22 22 22 21 21 21 21 20 20 21 21 21 21 21 20 20 20 20 20
15 16 16 17 18 19 20 20 20 19 19 20 20 20 20 21 20 20 21 22 23 24 24 25 25 24 23 23 23 22 22 22 22 22 22 22 22 21 20 21 21 22 22 21 21 21 20 20 20
16 16 16 18 18 19 21 20 20 19 19 20 20 21 21 21 21 22 22 23 23 24 24 25 25 25 25 24 24 24 23 23 23 23 23 23 22 22 22 22 22 22 22 21 21 21 21 21 21
16 16 17 18 19 20 21 21 20 20 20 21 21 22 22 22 22 22 22 23 24 24 24 25 25 25 26 25 25 25 24 23 23 23 23 23 22 22 22 22 22 22 22 22 21 21 21 21 20
16 17 18 19 20 20 21 21 20 20 20 21 21 22 23 23 22 22 22 23 24 24 24 24 25 25 26 26 26 25 25 24 24 24 24 24 23 23 22 22 23 22 22 22 22 22 22 22 22
18 18 18 19 20 20 21 21 20 20 20 21 21 22 22 22 21 21 21 22 23 23 23 24 24 25 26 26 26 25 25 24 24 25 25 25 24 24 24 24 24 23 23 22 23 23 22 23 23
Wind_Direction
198 193 184 176 171 178 178 178 179 164 158 151 148 161 174 174 164 161 155 155 142 101 130 152 154 149 147 140 141 143 210 248 245 260 264 268 276 261 257 256 248 242 240 237 238 242 248 254 252
207 203 204 198 197 202 201 198 197 186 183 184 188 186 184 185 171 167 157 164 163 140 139 152 161 176 175 161 171 210 248 258 267 274 275 279 276 266 266 261 257 255 252 247 243 245 250 253 255
210 213 213 210 213 216 223 218 210 207 208 216 219 212 209 210 194 189 187 183 184 179 184 193 198 210 222 220 220 233 248 270 281 284 283 277 274 273 273 271 266 261 256 252 248 247 250 253 255
219 222 221 217 218 223 230 227 221 222 230 235 235 229 226 231 230 229 228 232 229 214 214 224 224 241 253 251 244 256 265 276 281 285 284 278 272 272 276 278 271 264 259 253 248 250 252 254 257
224 223 225 222 223 227 232 238 237 237 242 241 240 239 236 243 248 247 246 243 250 246 243 240 235 248 260 259 255 263 275 278 279 282 285 284 285 286 290 288 278 264 253 250 248 250 250 255 259
230 226 229 228 228 232 236 243 243 241 244 243 240 244 247 248 252 253 250 252 253 255 254 253 253 258 265 261 253 260 270 283 290 288 285 280 282 286 287 292 284 267 255 253 251 250 253 257 264
236 233 235 234 236 238 239 240 242 244 247 247 245 246 251 252 253 254 254 258 258 257 256 258 257 259 261 263 270 269 270 279 286 290 284 278 278 281 280 280 271 259 253 254 256 257 261 263 266
242 239 239 240 241 240 242 242 247 249 252 254 255 255 251 254 255 251 252 254 256 258 262 262 262 264 265 268 269 268 270 274 279 282 283 283 281 277 277 273 263 255 255 258 260 261 260 262 265
244 243 239 239 240 242 246 247 251 256 255 259 264 263 258 256 253 255 256 255 259 262 264 263 262 267 269 270 271 268 267 271 275 278 277 280 282 276 273 268 268 263 261 261 262 262 263 264 265
242 239 240 244 245 246 248 249 254 256 261 262 265 264 259 254 252 255 257 258 263 265 265 262 265 269 272 273 274 271 269 270 273 276 277 278 280 276 274 272 269 268 267 265 264 264 265 266 267
242 243 245 247 248 250 251 252 253 258 260 260 259 258 257 254 255 256 258 262 264 265 266 268 270 271 273 274 274 272 271 271 273 275 278 279 279 275 273 271 269 269 268 267 267 268 270 270 271
242 244 246 247 250 254 255 253 253 258 259 259 258 257 256 254 254 255 258 261 264 265 266 267 270 271 273 274 274 274 274 274 274 274 275 278 277 273 270 270 270 270 269 269 270 271 271 270 272
245 249 249 249 250 252 254 255 254 257 256 258 261 260 259 256 255 255 259 260 263 266 268 268 270 272 272 271 271 273 274 274 275 275 275 278 278 273 269 270 270 271 270 270 268 267 268 268 270
250 251 251 255 254 256 256 255 255 257 259 261 261 262 262 262 260 261 262 261 263 266 266 267 268 269 270 269 270 271 274 275 277 276 274 276 277 276 273 272 271 268 268 268 265 266 267 268 268
253 253 256 260 260 260 259 259 260 260 262 262 263 265 266 265 266 266 265 265 265 268 268 267 269 270 269 268 268 269 271 273 275 275 275 275 276 277 277 276 274 271 270 270 267 267 267 265 266
251 255 260 263 264 263 261 261 263 261 260 262 264 266 266 267 269 269 268 268 269 270 270 271 272 272 272 271 268 269 269 270 273 275 277 277 277 279 278 277 275 274 273 270 268 267 267 264 264
262 262 263 265 267 267 263 262 263 263 261 262 263 264 264 267 268 269 270 270 270 271 272 272 272 272 273 273 271 271 270 270 271 272 274 276 278 278 281 281 279 278 277 273 270 269 268 266 264
264 265 265 267 269 268 266 264 263 263 263 263 264 264 264 266 267 268 269 269 270 271 272 272 272 273 273 274 273 272 270 270 270 271 273 275 276 277 279 280 280 280 277 275 274 271 270 268 267
263 266 267 268 268 267 267 267 266 264 264 264 264 266 266 267 268 267 267 268 269 271 271 272 273 273 272 273 272 270 270 270 270 270 272 273 274 275 277 279 278 277 275 273 272 272 270 269 269
266 268 269 270 268 267 267 267 266 265 265 265 266 267 267 269 269 268 267 267 268 269 269 271 272 271 271 272 271 270 271 271 271 272 273 273 274 274 275 277 276 275 273 271 269 268 268 268 268
267 269 269 270 270 268 268 266 266 266 266 265 266 267 268 269 268 267 266 267 268 270 270 271 272 271 271 271 271 271 271 271 271 273 272 272 272 272 271 273 274 274 272 270 268 266 266 267 267
271 272 272 271 270 269 270 269 267 267 267 266 266 267 268 269 269 269 267 269 269 269 270 271 270 270 270 269 271 272 272 272 273 274 272 272 271 270 270 271 271 271 271 270 268 266 265 267 267
273 275 275 274 273 272 272 271 268 267 267 267 267 269 268 269 270 271 269 270 270 270 270 270 269 270 270 270 271 272 272 272 272 272 272 272 271 269 269 269 269 270 271 270 269 267 267 268 269
275 276 278 278 277 274 274 273 272 268 269 268 267 268 268 270 270 269 269 271 270 270 270 270 270 269 269 270 271 271 272 272 272 272 272 271 270 269 268 268 268 269 271 270 270 268 269 268 269
278 280 283 283 280 278 276 274 274 272 271 270 269 270 270 271 270 268 268 270 270 270 269 268 267 267 268 269 269 270 271 272 273 273 272 271 271 271 270 268 268 269 270 270 269 269 269 268 268
277 279 279 280 282 283 279 277 278 276 273 271 272 271 272 271 270 271 270 269 269 270 269 267 266 266 267 267 267 268 271 272 273 273 272 271 271 271 271 272 273 271 270 271 270 268 268 268 268
275 275 277 279 281 282 282 281 279 277 275 274 272 272 272 272 272 272 272 270 269 270 269 269 268 267 267 267 267 268 270 272 272 271 272 272 272 272 273 274 275 274 271 270 269 267 266 267 267
276 276 278 279 281 283 284 283 283 282 279 277 275 273 273 271 271 272 273 272 270 270 269 270 269 267 267 268 268 269 269 270 270 270 271 273 273 274 275 276 275 275 271 268 267 267 265 265 267
277 277 277 278 280 283 284 284 284 283 281 280 279 278 277 275 274 273 274 273 270 269 269 270 268 266 266 267 268 268 269 268 267 267 268 270 273 275 276 277 277 275 273 270 268 266 265 264 265
276 276 275 277 280 280 281 282 284 282 280 280 280 280 279 278 278 275 276 275 273 271 270 269 268 267 267 267 267 268 267 266 266 267 267 269 272 274 274 274 275 274 272 270 269 266 267 265 265
Height
5880 5880 5881 5883 5884 5884 5883 5883 5883 5883 5884 5884 5884 5884 5884 5884 5884 5886 5883 5881 5881 5879 5877 5878 5879 5880 5880 5880 5880 5879 5879 5878 5878 5878 5877 5876 5876 5875 5875 5874 5874 5874 5873 5873 5873 5873 5873 5873 5873
5879 5880 5882 5883 5883 5883 5883 5883 5883 5883 5883 5883 5883 5883 5883 5883 5883 5883 5882 5881 5881 5880 5879 5879 5879 5880 5880 5880 5879 5879 5878 5878 5878 5877 5876 5876 5875 5875 5874 5873 5873 5872 5872 5872 5872 5872 5872 5872 5872
5878 5879 5881 5882 5882 5882 5883 5882 5882 5883 5883 5883 5883 5883 5883 5883 5883 5882 5882 5881 5881 5880 5880 5880 5880 5880 5879 5879 5879 5879 5878 5878 5877 5876 5876 5875 5874 5873 5873 5872 5871 5870 5870 5870 5870 5871 5871 5870 5870
5878 5879 5881 5881 5881 5881 5882 5882 5882 5882 5882 5882 5882 5882 5882 5882 5882 5882 5881 5881 5880 5880 5880 5880 5880 5879 5879 5879 5878 5878 5877 5877 5876 5876 5875 5874 5873 5872 5871 5870 5868 5867 5867 5868 5869 5869 5869 5869 5869
5877 5878 5879 5879 5880 5880 5880 5880 5881 5881 5881 5881 5881 5881 5881 5881 5881 5881 5880 5880 5880 5880 5879 5879 5879 5879 5878 5878 5878 5877 5877 5876 5876 5875 5874 5873 5872 5871 5870 5868 5864 5863 5864 5866 5867 5867 5867 5867 5867
5876 5877 5878 5878 5879 5879 5879 5879 5879 5879 5880 5880 5880 5880 5880 5880 5880 5880 5880 5879 5879 5879 5879 5878 5878 5878 5877 5877 5877 5876 5876 5875 5875 5874 5873 5872 5871 5870 5869 5866 5863 5862 5863 5864 5865 5865 5865 5865 5865
5875 5876 5876 5877 5877 5878 5878 5878 5878 5878 5878 5878 5879 5879 5878 5878 5879 5878 5878 5878 5878 5878 5878 5877 5877 5876 5876 5876 5876 5875 5875 5874 5873 5873 5872 5871 5870 5869 5868 5866 5864 5863 5863 5864 5864 5864 5864 5863 5863
5873 5875 5874 5875 5876 5876 5876 5876 5877 5877 5877 5877 5877 5877 5877 5877 5877 5877 5877 5877 5877 5877 5876 5876 5875 5875 5875 5874 5874 5874 5873 5873 5872 5871 5870 5869 5869 5868 5867 5866 5864 5863 5863 5863 5862 5862 5862 5862 5861
5871 5874 5873 5873 5874 5874 5874 5875 5875 5875 5875 5875 5875 5875 5876 5875 5875 5875 5875 5876 5876 5875 5875 5875 5874 5874 5873 5873 5873 5872 5872 5871 5870 5870 5869 5868 5867 5866 5865 5864 5863 5862 5862 5861 5861 5860 5860 5860 5859
5870 5871 5871 5872 5872 5872 5873 5873 5874 5874 5874 5874 5874 5874 5874 5874 5874 5874 5874 5874 5874 5874 5874 5873 5873 5872 5872 5871 5871 5870 5870 5869 5869 5868 5867 5866 5865 5864 5864 5863 5862 5861 5860 5859 5859 5858 5858 5857 5857
5868 5869 5869 5869 5870 5870 5871 5871 5872 5872 5872 5872 5872 5872 5872 5872 5872 5872 5872 5872 5872 5872 5872 5871 5871 5870 5870 5869 5869 5868 5868 5867 5866 5866 5865 5864 5863 5863 5862 5861 5860 5859 5858 5858 5857 5856 5856 5855 5854
5867 5867 5867 5868 5868 5868 5869 5869 5870 5870 5871 5870 5870 5870 5870 5870 5870 5870 5870 5870 5870 5870 5869 5869 5869 5868 5868 5867 5867 5866 5866 5865 5864 5864 5863 5862 5861 5860 5859 5859 5858 5857 5856 5855 5855 5854 5853 5852 5852
5865 5865 5865 5866 5866 5866 5867 5867 5867 5868 5868 5868 5868 5868 5868 5868 5868 5868 5868 5868 5868 5867 5867 5867 5866 5866 5865 5865 5864 5863 5863 5862 5862 5861 5860 5860 5859 5858 5857 5856 5855 5855 5854 5853 5852 5851 5851 5850 5850
5863 5863 5863 5864 5864 5864 5864 5865 5865 5865 5865 5865 5865 5865 5865 5865 5865 5865 5865 5865 5865 5865 5864 5864 5863 5863 5863 5862 5861 5861 5860 5859 5859 5858 5858 5857 5856 5855 5855 5854 5853 5852 5851 5850 5849 5849 5848 5848 5847
5860 5861 5861 5861 5862 5862 5862 5863 5863 5863 5863 5863 5863 5863 5863 5863 5862 5862 5862 5862 5862 5862 5861 5861 5861 5860 5860 5859 5859 5858 5857 5857 5856 5856 5855 5854 5853 5853 5852 5851 5850 5849 5848 5847 5847 5846 5845 5845 5844
5858 5859 5859 5860 5859 5859 5861 5861 5860 5860 5860 5860 5860 5860 5860 5860 5860 5860 5859 5859 5859 5858 5858 5858 5857 5857 5856 5856 5855 5855 5854 5854 5853 5852 5852 5851 5850 5850 5849 5848 5847 5846 5845 5844 5844 5843 5842 5842 5841
5856 5857 5857 5857 5856 5856 5857 5857 5857 5857 5857 5857 5857 5857 5857 5857 5857 5857 5856 5856 5855 5855 5855 5854 5854 5854 5853 5852 5852 5851 5851 5850 5850 5849 5849 5848 5847 5846 5846 5845 5844 5843 5842 5841 5841 5840 5839 5839 5838
5854 5854 5854 5854 5853 5853 5853 5854 5854 5853 5853 5853 5853 5853 5853 5853 5853 5853 5853 5852 5852 5851 5851 5851 5850 5850 5849 5849 5848 5848 5847 5847 5846 5846 5845 5844 5844 5843 5842 5841 5840 5839 5839 5838 5837 5837 5836 5835 5835
5850 5850 5850 5850 5849 5849 5850 5850 5850 5850 5850 5850 5850 5850 5849 5849 5849 5849 5849 5848 5848 5847 5847 5847 5846 5846 5845 5845 5845 5844 5843 5843 5842 5842 5841 5840 5840 5839 5838 5837 5837 5836 5835 5834 5834 5833 5833 5832 5832
5846 5846 5846 5846 5845 5845 5845 5846 5846 5846 5846 5846 5846 5846 5845 5845 5845 5845 5844 5844 5844 5843 5843 5842 5842 5842 5841 5841 5840 5840 5839 5839 5838 5837 5837 5836 5836 5835 5834 5833 5833 5832 5831 5830 5830 5830 5829 5829 5828
5841 5841 5841 5841 5841 5840 5841 5842 5842 5841 5841 5841 5841 5841 5841 5841 5840 5840 5840 5840 5839 5839 5839 5838 5837 5837 5836 5836 5836 5835 5835 5834 5834 5833 5832 5832 5831 5831 5830 5829 5828 5828 5827 5826 5826 5825 5825 5825 5824
5837 5837 5837 5836 5836 5836 5837 5836 5837 5836 5836 5836 5837 5836 5836 5836 5835 5835 5835 5835 5834 5834 5833 5833 5832 5832 5832 5831 5831 5830 5830 5829 5829 5828 5828 5827 5826 5826 5825 5824 5824 5823 5822 5822 5821 5821 5820 5820 5820
5833 5833 5832 5832 5831 5831 5831 5831 5832 5832 5831 5831 5831 5831 5831 5831 5830 5830 5830 5829 5829 5828 5828 5827 5827 5826 5826 5826 5825 5825 5825 5824 5824 5823 5822 5822 5821 5821 5820 5820 5819 5819 5818 5817 5817 5816 5816 5815 5815
5828 5828 5827 5827 5826 5827 5827 5826 5826 5827 5826 5826 5826 5825 5825 5825 5825 5824 5824 5824 5823 5823 5822 5822 5821 5821 5820 5820 5820 5819 5819 5818 5818 5817 5817 5816 5816 5815 5815 5814 5814 5813 5813 5812 5811 5811 5810 5810 5810
5824 5824 5824 5822 5822 5822 5821 5820 5821 5821 5820 5820 5820 5820 5819 5819 5819 5818 5818 5818 5817 5816 5816 5815 5815 5814 5814 5814 5814 5813 5813 5813 5812 5812 5811 5811 5810 5810 5809 5809 5808 5808 5807 5806 5806 5805 5805 5804 5804
5819 5820 5820 5819 5818 5817 5815 5814 5816 5815 5815 5814 5814 5813 5813 5812 5812 5812 5812 5811 5810 5809 5809 5808 5808 5808 5808 5807 5807 5807 5807 5807 5807 5806 5806 5805 5805 5804 5804 5803 5802 5802 5801 5800 5800 5799 5799 5799 5798
5814 5814 5814 5814 5812 5811 5810 5809 5809 5809 5808 5808 5807 5807 5806 5806 5806 5805 5805 5804 5803 5802 5801 5801 5800 5800 5801 5801 5801 5801 5801 5801 5801 5800 5800 5799 5799 5798 5798 5797 5796 5795 5795 5794 5794 5793 5793 5793 5793
5810 5809 5809 5807 5806 5805 5805 5804 5804 5803 5802 5801 5801 5800 5800 5800 5799 5798 5798 5797 5796 5795 5794 5793 5792 5793 5793 5793 5793 5794 5794 5794 5794 5794 5794 5793 5793 5792 5791 5791 5790 5789 5789 5788 5788 5788 5787 5787 5787
5805 5804 5803 5802 5801 5800 5799 5801 5798 5797 5796 5795 5794 5794 5793 5793 5792 5792 5791 5789 5788 5787 5786 5786 5786 5786 5786 5786 5786 5786 5787 5787 5787 5787 5787 5786 5786 5786 5785 5784 5784 5783 5782 5782 5781 5781 5781 5781 5781
5798 5798 5797 5797 5796 5794 5793 5796 5793 5792 5790 5789 5788 5787 5787 5786 5786 5784 5783 5782 5781 5780 5779 5779 5779 5779 5778 5778 5778 5779 5780 5780 5780 5780 5780 5779 5779 5778 5778 5778 5777 5776 5776 5776 5775 5775 5775 5775 5775